Weather History for Los Alamitos, CA

Change the Weather History Date:

Tuesday, October 29, 2013

  Actual Average Record
Temperature  
Mean Temperature 58 °F -  
Max Temperature 66 °F 72 °F 81 °F (2008)
Min Temperature 50 °F 57 °F 46 °F (2011)
Degree Days  
Heating Degree Days 7    
Growing Degree Days 8 (Base 50)    
Moisture  
Dew Point 51 °F    
Average Humidity 83    
Maximum Humidity 100    
Minimum Humidity 47    
Precipitation  
Precipitation 0.06 in - - ()
Sea Level Pressure  
Sea Level Pressure 29.97 in    
Wind  
Wind Speed 4 mph (SSW)    
Max Wind Speed 15 mph    
Max Gust Speed -    
Visibility 9 miles    
Events Rain    
Averages and records for this station are not official NWS values.
T = Trace of Precipitation, MM = Missing Value Source: NWS Daily Summary

Daily Weather History Graph

Daily Weather History Graph

Search for Another Location

Airport:

Trip Planner

Search our weather history database for the weather conditions in past years. The results will help you decide how hot, cold, wet, or windy it might be!

Date:

Astronomy

Oct. 29, 2013 Rise Set
Actual Time 7:09 AM PDT 6:02 PM PDT
Civil Twilight 6:43 AM PDT 6:27 PM PDT
Nautical Twilight 6:13 AM PDT 6:57 PM PDT
Astronomical Twilight 5:44 AM PDT 7:26 PM PDT
Moon 2:17 AM PDT (10/29) 3:06 PM PDT (10/29)
Length of Visible Light 11h 44m
Length of Day
10h 53m
Waning Crescent, 24% of the Moon is Illuminated
Oct 29
Waning Crescent
Nov 3
New
Nov 9
First Quarter
Nov 17
Full
Nov 25
Last Quarter

Hourly Weather History & Observations

Time (PDT) Temp. Dew Point Humidity Pressure Visibility Wind Dir Wind Speed Gust Speed Precip Events Conditions
12:58 AM 56.5 °F 52.0 °F 85% 29.95 in 10.0 mi ESE 2.3 mph - N/A   Overcast
1:08 AM 57.2 °F 51.8 °F 82% 29.95 in 9.0 mi SSE 3.5 mph - N/A Rain Light Rain
1:52 AM 55.4 °F 55.4 °F 100% 29.94 in 10.0 mi East 4.6 mph - N/A   Overcast
1:58 AM 55.6 °F 55.2 °F 99% 29.96 in 10.0 mi East 2.3 mph - 0.05 in   Overcast
2:58 AM 54.0 °F 54.0 °F 100% 29.94 in 10.0 mi East 2.3 mph - N/A   Clear
3:58 AM 52.5 °F 52.5 °F 100% 29.94 in 10.0 mi Calm Calm - N/A   Scattered Clouds
4:11 AM 51.8 °F 51.8 °F 100% 29.93 in 10.0 mi Calm Calm - N/A Rain Light Rain
4:58 AM 52.9 °F 52.9 °F 100% 29.94 in 10.0 mi Calm Calm - 0.01 in Rain Light Rain
5:08 AM 53.6 °F 53.6 °F 100% 29.93 in 10.0 mi Calm Calm - N/A   Mostly Cloudy
5:58 AM 53.4 °F 53.4 °F 100% 29.95 in 10.0 mi Calm Calm - 0.00 in   Mostly Cloudy
6:58 AM 50.0 °F 50.0 °F 100% 29.95 in 1.2 mi NW 2.3 mph - N/A   Scattered Clouds
7:03 AM 51.8 °F 51.8 °F 100% 29.95 in 1.2 mi NNW 4.6 mph - N/A   Mostly Cloudy
7:08 AM 51.8 °F 51.8 °F 100% 29.95 in 3.0 mi North 4.6 mph - N/A   Scattered Clouds
7:58 AM 51.8 °F 51.8 °F 100% 29.98 in 10.0 mi NNE 1.2 mph - N/A   Mostly Cloudy
8:58 AM 55.8 °F 54.9 °F 97% 29.99 in 10.0 mi East 4.6 mph - N/A   Clear
9:58 AM 59.9 °F 54.3 °F 82% 30.00 in 10.0 mi Calm Calm - N/A   Clear
10:58 AM 62.8 °F 49.5 °F 62% 30.00 in 10.0 mi Variable 1.2 mph - N/A   Partly Cloudy
11:58 AM 63.3 °F 48.6 °F 59% 29.99 in 10.0 mi Variable 6.9 mph - N/A   Mostly Cloudy
12:58 PM 65.1 °F 47.8 °F 54% 29.98 in 10.0 mi SSW 10.4 mph - N/A   Clear
1:58 PM 66.0 °F 45.1 °F 47% 29.97 in 10.0 mi SW 12.7 mph - N/A   Scattered Clouds
2:58 PM 65.5 °F 45.1 °F 48% 29.96 in 10.0 mi SW 11.5 mph - N/A   Mostly Cloudy
3:58 PM 64.9 °F 44.4 °F 47% 29.97 in 10.0 mi SW 15.0 mph - N/A   Partly Cloudy
4:58 PM 63.9 °F 45.7 °F 52% 29.97 in 10.0 mi SW 12.7 mph - N/A   Partly Cloudy
5:58 PM 61.2 °F 47.1 °F 60% 29.97 in 10.0 mi WSW 12.7 mph - N/A   Scattered Clouds
6:58 PM 59.4 °F 47.5 °F 65% 29.98 in 10.0 mi West 6.9 mph - N/A   Partly Cloudy
7:58 PM 57.6 °F 48.2 °F 71% 29.99 in 10.0 mi SW 3.5 mph - N/A   Partly Cloudy
8:58 PM 57.2 °F 51.3 °F 81% 30.01 in 10.0 mi SW 2.3 mph - N/A   Partly Cloudy
9:58 PM 55.2 °F 53.4 °F 94% 30.01 in 10.0 mi South 4.6 mph - N/A   Partly Cloudy
10:58 PM 55.0 °F 54.0 °F 96% 30.02 in 10.0 mi Calm Calm - N/A   Clear
11:59 PM 53.4 °F 53.2 °F 99% 30.01 in 10.0 mi SW 2.3 mph - N/A   Clear